Fort Benning, AL

5:21 PM CDT on June 27, 2017 (GMT -0500)
Lawson Army Air Field

Weather History for KLSF - September, 2012

Change the Weather History Date:

Wednesday, September 12, 2012

  Actual Average Record
Temperature  
Mean Temperature 73 °F -  
Max Temperature 85 °F 84 °F 98 °F (2010)
Min Temperature 62 °F 62 °F 57 °F (2011)
Cooling Degree Days 8    
Growing Degree Days 23 (Base 50)    
Moisture  
Dew Point 59 °F    
Average Humidity 64    
Maximum Humidity 94    
Minimum Humidity 36    
Precipitation  
Precipitation 0.00 in - - ()
Sea Level Pressure  
Sea Level Pressure 30.22 in    
Wind  
Wind Speed 4 mph (ENE)    
Max Wind Speed 13 mph    
Max Gust Speed 18 mph    
Visibility 10 miles    
Events      
Averages and records for this station are not official NWS values.
T = Trace of Precipitation, MM = Missing Value Source: NWS Daily Summary

Daily Weather History Graph

Daily Weather History Graph

Search for Another Location

Airport or City:

Trip Planner

Search our weather history database for the weather conditions in past years. The results will help you decide how hot, cold, wet, or windy it might be!

Date:

Astronomy

Sep. 12, 2012 Rise Set
Actual Time 7:22 AM EDT 7:49 PM EDT
Civil Twilight 6:57 AM EDT 8:13 PM EDT
Nautical Twilight 6:28 AM EDT 8:42 PM EDT
Astronomical Twilight 5:59 AM EDT 9:12 PM EDT
Moon 3:48 AM EDT (9/12) 5:28 PM EDT (9/12)
Length of Visible Light 13h 16m
Length of Day
12h 27m
Waning Crescent, 14% of the Moon is Illuminated
Sep 12
Waning Crescent
Sep 15
New
Sep 22
First Quarter
Sep 29
Full
Oct 8
Last Quarter

Hourly Weather History & Observations

Time (EDT) Temp. Heat Index Dew Point Humidity Pressure Visibility Wind Dir Wind Speed Gust Speed Precip Events Conditions
12:55 AM 65.3 °F - 62.1 °F 89% 30.21 in 10.0 mi Calm Calm - N/A   Clear
1:55 AM 66.4 °F - 61.0 °F 83% 30.20 in 10.0 mi Calm Calm - N/A   Clear
2:55 AM 63.7 °F - 60.6 °F 90% 30.20 in 10.0 mi Calm Calm - N/A   Mostly Cloudy
3:55 AM 62.6 °F - 60.8 °F 94% 30.19 in 10.0 mi Calm Calm - N/A   Partly Cloudy
4:55 AM 62.6 °F - 60.4 °F 93% 30.19 in 10.0 mi NNW 3.5 mph - N/A   Overcast
5:55 AM 63.0 °F - 60.6 °F 92% 30.21 in 10.0 mi NNW 3.5 mph - N/A   Mostly Cloudy
6:55 AM 63.9 °F - 61.9 °F 93% 30.22 in 10.0 mi North 5.8 mph - N/A   Overcast
7:55 AM 64.4 °F - 62.2 °F 93% 30.25 in 10.0 mi North 4.6 mph - N/A   Overcast
8:55 AM 67.3 °F - 61.3 °F 81% 30.26 in 10.0 mi NNE 5.8 mph - N/A   Overcast
9:55 AM 71.2 °F - 61.0 °F 70% 30.28 in 10.0 mi NE 5.8 mph - N/A   Overcast
10:00 AM 71.6 °F - 60.8 °F 69% 30.28 in 10.0 mi NE 4.6 mph - N/A   Light Drizzle
10:04 AM 73.4 °F - 60.8 °F 65% 30.28 in 10.0 mi East 8.1 mph - N/A   Mostly Cloudy
10:06 AM 73.4 °F - 60.8 °F 65% 30.28 in 10.0 mi East 6.9 mph - N/A   Light Drizzle
10:16 AM 73.4 °F - 60.8 °F 65% 30.28 in 10.0 mi East 6.9 mph - N/A   Overcast
10:55 AM 77.0 °F - 59.7 °F 55% 30.28 in 10.0 mi ESE 10.4 mph - 0.00 in   Partly Cloudy
11:55 AM 78.8 °F - 57.7 °F 48% 30.27 in 10.0 mi East 8.1 mph - N/A   Clear
12:55 PM 81.9 °F 81.6 °F 56.7 °F 42% 30.26 in 10.0 mi NE 12.7 mph - N/A   Clear
1:55 PM 83.8 °F 82.6 °F 54.0 °F 36% 30.24 in 10.0 mi ENE 4.6 mph 18.4 mph N/A   Clear
2:55 PM 83.7 °F 82.5 °F 54.9 °F 37% 30.21 in 10.0 mi East 9.2 mph 16.1 mph N/A   Partly Cloudy
3:55 PM 84.4 °F 83.1 °F 54.7 °F 36% 30.19 in 10.0 mi East 6.9 mph - N/A   Partly Cloudy
4:55 PM 82.9 °F 82.3 °F 56.3 °F 40% 30.17 in 10.0 mi East 9.2 mph - N/A   Scattered Clouds
5:55 PM 83.7 °F 83.1 °F 57.9 °F 41% 30.17 in 10.0 mi East 8.1 mph - N/A   Scattered Clouds
6:55 PM 79.7 °F - 58.6 °F 48% 30.17 in 10.0 mi East 6.9 mph - N/A   Partly Cloudy
7:55 PM 77.7 °F - 58.3 °F 51% 30.17 in 10.0 mi East 6.9 mph - N/A   Partly Cloudy
8:55 PM 76.3 °F - 59.0 °F 55% 30.18 in 10.0 mi East 5.8 mph - N/A   Mostly Cloudy
9:55 PM 76.1 °F - 59.0 °F 55% 30.19 in 10.0 mi East 6.9 mph - N/A   Overcast
10:55 PM 74.8 °F - 58.6 °F 57% 30.21 in 10.0 mi East 5.8 mph - N/A   Overcast
11:55 PM 74.8 °F - 58.1 °F 56% 30.21 in 10.0 mi NE 3.5 mph - N/A   Overcast